Location: Champignolles
(47.0543°N, 4.5663°E)
Time: 13:41:00
(UTC+00:00)

Cosmos 1933 - Pass Details

Date: 30 November 2020
Orbit: 546 x 564 km, 82.5° (Epoch: 27 January)

Event Time Altitude Azimuth Distance (km) Brightness Sun altitude
Rises 16:30:24 0° 165° (SSE) 2,719 7.0 -6.2°
Reaches altitude 10° 16:32:41 10° 156° (SSE) 1,833 6.0 -6.5°
Maximum altitude 16:36:20 34° 91° (E) 932 4.0 -7.1°
Drops below altitude 10° 16:40:03 10° 26° (NNE) 1,858 5.6 -7.7°
Sets 16:42:22 0° 18° (NNE) 2,762 6.5 -8.0°
